Probability
4 4 4 2 1 0 0 0 0 0 1 3 4 4 3 1 0 0 0 0 0 0 0 0 0 0 0 0 0 0 0 0 0 0 0 0 0 0 0 0 0 0 1
6 5 4 3 1 0 0 0 0 0 1 3 4 4 3 2 1 0 0 0 0 0 0 0 0 0 0 0 0 0 0 0 0 0 0 0 0 0 0 1 1 1 2
6 5 4 3 2 1 0 0 1 1 1 2 3 3 3 3 1 0 0 0 0 0 0 0 0 0 0 0 0 0 0 0 0 0 0 0 0 0 1 2 2 2 2
5 5 4 3 2 1 0 0 0 0 1 1 1 3 3 3 2 1 0 0 0 0 0 0 0 0 0 0 0 0 0 0 0 0 0 0 0 0 1 2 2 1 1
4 4 4 4 3 1 0 0 0 0 0 0 1 2 3 3 3 1 0 0 0 1 1 0 0 0 0 0 0 0 0 0 0 0 0 0 0 0 0 1 1 1 1
5 4 5 6 5 3 2 1 1 0 0 0 1 2 3 3 3 2 1 0 1 2 2 1 0 0 0 0 0 0 0 0 0 0 0 0 0 0 0 0 1 1 0
5 4 5 7 8 7 6 5 3 1 0 0 1 2 3 3 3 3 2 1 2 3 2 1 0 0 0 0 0 0 0 0 0 0 0 0 0 0 0 0 0 0 0
5 5 5 7 9 9 9 8 6 3 1 1 0 1 3 4 4 5 4 3 3 2 1 0 0 0 0 0 0 0 0 0 0 0 0 0 0 0 0 0 0 0 0
5 5 6 8 9 10 10 9 6 4 3 2 1 2 4 5 6 6 6 5 4 1 0 0 0 0 0 0 0 0 0 0 0 0 0 0 0 0 0 0 0 0 0
5 6 7 8 10 11 11 10 7 4 3 3 3 4 6 7 6 6 6 6 4 2 1 0 0 0 0 0 0 0 0 0 0 0 0 0 0 0 0 0 0 0 0
6 8 8 8 8 10 11 10 7 4 2 3 4 5 7 7 6 6 6 5 4 3 2 1 0 0 0 0 0 0 0 0 0 0 0 0 0 0 0 0 0 0 0
7 9 10 7 6 7 8 9 7 6 5 4 4 5 7 7 6 5 4 4 3 3 2 1 0 0 0 0 0 0 0 0 0 0 0 0 0 0 0 0 0 0 0
6 8 9 8 6 5 6 8 9 9 8 7 6 7 8 8 6 4 3 3 3 3 2 1 0 0 0 0 0 0 0 0 0 0 0 0 0 0 0 0 0 0 0
6 7 9 8 6 4 6 10 12 11 11 11 11 9 8 7 6 4 3 3 3 3 2 1 0 0 0 0 0 0 0 0 0 0 0 0 0 0 0 0 0 0 0
6 8 9 9 7 5 7 11 13 12 12 13 13 9 6 4 4 3 3 3 3 2 2 1 0 0 0 0 0 0 0 0 0 0 0 0 0 0 0 0 0 0 0
6 8 10 10 9 7 7 10 12 12 12 13 12 9 5 3 2 1 2 2 1 1 1 0 0 0 0 0 0 0 0 0 0 0 0 0 0 0 0 0 0 0 0
5 7 10 11 10 8 8 9 10 11 11 12 12 9 5 2 1 0 1 1 0 0 0 0 0 0 0 0 0 0 0 0 0 0 0 0 0 0 0 0 0 0 0
6 8 11 12 10 9 9 9 10 10 11 12 12 10 6 3 2 1 0 0 0 0 0 0 0 0 0 0 0 0 0 0 0 0 0 0 0 0 0 0 0 0 0
9 10 12 13 11 10 9 9 9 9 9 10 12 11 7 5 4 2 1 1 1 0 1 1 1 1 0 0 0 0 0 0 0 0 0 0 0 0 0 0 0 0 0
9 10 11 12 12 10 9 9 8 7 7 8 10 10 8 8 8 7 5 5 4 3 3 3 3 2 1 0 0 0 0 0 0 0 0 0 0 0 0 0 0 0 0
7 7 8 10 10 9 9 8 7 6 6 7 7 7 7 9 11 11 11 10 8 6 5 5 4 3 2 1 0 0 0 0 0 0 0 0 0 0 0 0 0 0 0
3 3 4 6 6 6 6 6 6 6 7 7 7 7 8 9 11 12 13 13 12 9 7 6 5 4 2 1 0 0 0 0 0 0 0 0 0 0 0 0 0 0 0
2 2 2 3 4 4 3 2 3 5 7 8 9 9 9 9 10 12 13 13 13 11 8 7 5 4 2 1 0 0 0 0 0 0 0 0 0 0 0 0 0 0 0
2 2 2 3 3 4 3 1 2 4 5 7 8 9 9 9 10 11 12 12 12 11 9 7 6 4 3 1 0 0 0 0 0 0 0 0 0 0 0 0 0 0 0
1 1 2 2 3 3 3 3 3 3 4 4 5 6 7 8 8 8 9 9 9 9 7 6 5 5 3 1 0 0 0 0 0 0 0 0 0 0 0 0 0 0 0
0 0 1 1 2 3 3 3 3 3 3 3 4 5 6 7 6 6 6 6 6 6 4 3 4 4 3 1 0 0 0 0 0 0 0 0 0 0 0 0 0 0 0
Wind_Speed
8 6 5 5 4 4 4 5 4 4 3 2 2 2 1 1 2 2 2 2 3 3 3 2 2 3 2 2 2 3 2 2 2 2 2 2 2 3 3 3 3 3 3
8 7 6 5 5 4 4 5 4 4 3 2 2 2 2 1 1 1 2 2 2 2 2 2 2 2 2 2 2 2 1 0 1 1 1 1 1 2 2 2 3 3 3
9 9 7 6 5 4 4 3 4 4 4 3 2 2 2 1 1 1 1 1 2 2 2 2 2 2 2 1 1 1 2 0 1 1 1 1 1 0 1 2 3 3 3
7 7 7 6 5 4 4 4 4 4 4 4 3 3 2 2 2 2 2 1 2 1 1 2 2 2 2 2 1 1 1 1 1 1 1 1 2 2 1 1 2 2 3
7 8 7 6 5 4 4 3 3 4 4 4 4 2 1 1 2 2 2 2 1 2 2 2 1 2 2 1 1 1 1 0 0 0 1 1 1 1 2 1 0 1 2
6 6 7 6 5 4 4 3 3 3 3 3 4 4 3 2 2 2 2 2 1 1 2 2 2 2 2 2 1 1 1 0 0 0 1 1 0 0 1 1 1 1 0
6 6 7 7 5 5 4 4 3 3 3 3 3 3 4 3 3 2 2 2 2 2 2 2 2 2 1 1 2 1 1 1 0 0 0 0 0 0 1 2 1 1 0
5 6 6 6 6 6 5 5 4 3 3 3 2 3 3 2 2 2 2 2 2 2 3 2 2 2 2 2 1 1 1 1 1 1 1 0 0 1 1 2 2 1 1
5 5 5 6 6 6 5 5 5 4 3 3 2 2 3 2 2 2 1 1 1 2 3 3 3 2 2 1 1 1 1 1 1 1 1 1 1 0 0 1 2 2 1
5 5 4 4 5 5 5 5 5 5 4 3 3 2 2 3 2 1 2 1 1 1 3 3 3 3 3 2 2 1 1 1 1 1 1 1 1 0 1 1 0 1 2
4 5 4 3 3 4 5 4 4 4 3 3 3 3 3 3 3 2 2 2 1 1 2 3 3 3 3 3 3 3 2 2 2 2 2 1 1 1 1 1 1 1 2
4 5 5 4 3 3 4 4 3 3 3 2 2 3 3 3 3 3 2 2 2 2 2 1 2 2 3 3 4 4 3 3 3 3 3 2 1 1 1 1 1 1 1
4 4 4 3 3 3 3 3 3 3 2 2 2 2 2 2 3 2 2 2 2 2 2 2 1 2 2 2 2 3 4 4 3 3 3 3 3 2 1 2 2 1 1
3 3 3 3 3 3 2 2 2 2 2 2 2 2 2 2 2 2 2 2 2 1 2 2 2 3 2 3 3 3 3 3 3 2 2 3 3 3 3 2 2 2 2
2 2 2 2 2 2 2 2 2 2 2 3 3 3 2 2 2 2 2 2 2 1 1 2 1 1 1 1 1 1 2 2 2 2 2 2 4 4 2 2 2 2 2
1 0 2 2 3 2 2 2 2 2 2 3 3 2 2 2 2 2 2 2 1 1 1 2 2 1 1 2 1 1 0 1 2 2 2 3 4 4 3 3 3 2 3
1 1 1 1 2 3 3 3 3 3 3 3 3 3 3 3 3 3 2 2 2 2 2 2 2 2 1 2 1 1 1 1 2 2 2 2 3 4 3 2 2 2 2
2 2 1 1 1 1 1 2 3 3 3 3 3 4 4 4 3 3 3 2 2 2 2 2 2 2 2 3 2 2 1 2 2 2 3 3 3 4 4 3 2 2 3
3 3 3 2 1 1 1 1 2 2 2 2 2 3 4 4 4 3 3 3 2 2 2 2 2 2 2 4 3 3 1 2 2 2 2 3 4 5 5 4 3 2 2
3 3 3 3 2 2 1 1 1 1 2 2 2 2 3 4 5 4 4 3 2 2 2 2 2 3 3 5 5 4 2 2 2 1 2 3 3 5 6 4 4 3 3
2 2 2 3 3 2 1 2 2 2 1 1 1 2 2 3 4 4 3 3 3 3 3 3 2 3 3 5 6 6 2 2 2 2 2 2 4 5 6 5 4 5 3
2 2 2 2 2 2 1 2 2 1 1 1 2 2 2 3 3 3 3 3 3 3 2 2 2 2 3 4 6 7 6 3 2 2 2 2 5 6 6 5 5 5 3
3 3 2 2 2 2 2 2 3 1 1 1 2 2 2 2 2 3 3 3 3 3 3 2 2 2 2 2 5 7 7 6 2 1 2 2 4 5 5 6 6 4 3
3 3 3 3 3 2 2 3 3 2 2 2 2 2 2 2 2 2 3 3 3 3 3 3 3 2 2 2 2 3 4 4 3 2 2 2 3 4 4 4 4 3 3
3 3 3 4 4 2 2 2 2 2 2 3 2 2 3 3 3 2 2 3 3 4 4 3 3 2 3 3 3 3 3 3 3 2 1 1 1 2 2 3 3 3 3
3 3 4 4 5 4 3 2 2 3 3 3 3 2 2 2 2 2 2 3 4 5 6 5 4 3 3 3 4 5 4 3 3 2 2 3 3 3 4 3 3 4 4
Wind_Direction
168 163 160 158 159 152 144 134 141 141 127 122 109 107 98 78 77 85 88 67 65 76 82 71 58 64 67 68 75 75 70 69 89 86 71 47 68 81 52 37 42 54 60
167 163 164 164 164 158 149 144 145 143 131 122 123 131 119 107 99 73 68 77 78 75 93 97 88 79 73 67 71 79 76 57 97 123 118 97 23 31 65 59 45 43 38
171 164 168 168 164 159 150 149 158 148 138 135 119 109 101 93 114 121 88 64 93 94 89 100 106 109 100 90 82 93 81 24 334 44 88 121 135 85 33 68 65 52 38
163 158 161 160 164 163 151 163 164 152 145 143 148 158 157 157 161 142 136 149 133 120 107 108 114 118 111 118 157 108 98 76 335 355 15 61 116 134 118 20 65 73 61
163 159 156 156 157 153 151 169 157 151 150 156 145 153 144 158 152 130 146 160 150 152 146 136 131 124 130 148 135 100 85 113 163 54 25 17 12 29 119 131 76 43 45
159 153 152 151 155 145 142 142 141 140 146 156 155 164 157 162 159 157 166 164 155 163 173 161 156 150 153 161 154 145 151 273 27 92 100 109 73 345 91 116 126 111 47
155 156 155 156 156 147 150 152 147 143 149 160 161 166 167 176 172 166 178 177 169 168 186 155 155 154 149 150 139 157 178 172 168 141 156 135 150 121 107 112 125 109 126
150 154 157 157 158 156 160 162 159 160 164 168 169 161 158 164 159 174 185 181 171 167 165 158 156 163 164 168 155 163 181 175 179 159 139 131 95 77 109 132 128 103 56
146 149 150 153 157 161 165 166 160 161 170 180 176 167 155 152 159 169 173 166 173 174 164 165 167 171 167 159 146 159 188 150 147 142 138 140 154 113 117 112 136 140 137
146 146 147 150 161 164 167 171 167 174 179 178 176 175 163 153 155 156 162 170 183 178 168 175 170 169 171 168 176 164 175 132 132 125 107 125 155 119 82 83 65 98 136
142 144 144 147 153 157 160 165 169 170 175 182 182 175 176 166 165 181 181 187 174 171 181 186 183 184 184 186 178 176 183 179 184 172 164 193 175 145 130 90 75 61 99
137 141 143 149 155 154 154 160 165 164 169 177 178 180 176 171 177 192 185 187 185 178 172 189 191 204 199 197 184 182 183 193 195 191 174 186 164 153 149 134 139 146 136
127 137 138 147 156 158 157 162 161 164 169 168 169 174 176 178 186 190 184 196 189 170 168 177 183 223 217 190 186 189 193 198 197 193 184 182 162 177 177 173 168 170 140
120 122 134 149 157 162 164 162 162 164 171 167 164 177 189 184 183 180 184 196 187 179 176 175 191 214 210 195 196 208 203 196 193 195 181 169 166 178 180 184 181 164 149
106 132 144 150 155 167 166 158 168 181 181 177 182 188 183 173 163 166 182 194 193 190 175 176 201 201 186 181 181 212 209 211 197 181 159 138 130 120 135 151 154 143 145
7 160 177 173 171 182 180 176 184 196 196 193 187 175 170 159 154 164 182 182 168 180 200 195 176 183 157 106 100 45 280 219 194 192 175 154 148 141 142 143 129 138 163
348 316 276 203 196 202 196 197 194 196 198 198 188 183 177 171 171 180 189 181 173 195 219 209 172 178 177 137 129 123 358 271 225 200 184 176 163 152 152 166 182 197 215
353 330 334 355 298 272 231 209 191 193 205 204 196 188 178 178 177 180 187 185 185 198 218 205 190 182 187 170 172 187 221 263 244 208 184 173 157 162 157 169 189 204 220
25 3 342 329 312 299 294 256 208 196 204 212 208 194 182 180 182 186 192 192 190 200 210 215 194 181 189 186 187 180 207 241 255 231 197 180 171 181 171 167 185 204 233
9 2 339 318 308 289 283 269 238 217 224 217 215 200 186 186 188 191 195 194 195 201 204 218 204 191 190 197 195 193 201 219 236 237 220 197 186 179 175 180 186 203 218
354 346 335 328 318 317 303 274 249 247 249 234 225 210 193 190 192 191 192 192 199 205 214 220 215 205 195 196 196 195 202 207 214 219 218 204 193 187 191 199 201 209 203
340 333 333 334 335 332 318 300 276 259 240 226 220 213 205 207 200 184 190 194 195 202 216 224 232 223 199 186 195 196 206 216 208 214 211 200 199 199 200 206 217 219 207
338 340 338 332 331 329 321 301 296 286 262 232 224 218 208 203 196 190 195 195 190 196 210 212 224 229 208 189 189 197 211 226 226 220 216 228 211 197 200 210 217 210 195
341 337 328 320 315 310 306 290 293 279 261 242 228 223 218 221 213 201 202 197 191 198 208 211 218 224 212 193 178 192 207 220 231 243 251 250 220 203 207 210 213 204 200
339 332 322 316 309 301 296 302 302 285 265 257 244 231 219 220 221 217 215 210 203 198 202 208 207 210 222 213 181 175 192 197 205 198 207 204 180 204 212 205 203 202 203
330 323 319 318 316 315 304 301 302 287 271 262 253 245 237 223 216 213 233 236 226 221 218 214 213 228 232 228 201 198 198 198 195 180 202 214 213 214 214 211 212 210 212